Left ArrowRight Arrow

38.83388, -104.82136

Hourly Observations for June 24, 2024

Temp ( °F °C ) Dew Point ( °F °C ) Humidity (%) Winds ( mph kmh ) Pressure ( in mb ) Visibility ( mi km ) Precip ( " mm )
12:55 am 00:55 Clear 75 23.8 39 3.7 27 27 WNW 6 9 29.56 1001 10 16 0.00 0.00
1:55 am 01:55 Cloudy 76 24.7 39 3.9 26 26 Calm 29.54 1001 10 16 0.00 0.00
2:55 am 02:55 Partly Cloudy 75 23.7 37 3 26 26 SW 3 6 29.54 1000 10 16 0.00 0.00
3:55 am 03:55 Clear 73 23 37 2.5 26 26 WNW 5 7 29.53 1000 10 16 0.00 0.00
4:55 am 04:55 Mostly Cloudy 74 23.1 37 2.5 26 26 WNW 3 6 29.53 1000 10 16 0.00 0.00
5:55 am 05:55 Partly Cloudy 74 23.2 37 2.6 26 26 Calm 29.54 1000 10 16 0.00 0.00
6:55 am 06:55 Cloudy 77 25.2 39 3.8 25 25 Calm 29.54 1000 10 16 0.00 0.00
7:55 am 07:55 Mostly Cloudy 79 26.3 42 5.8 27 27 Calm 29.56 1001 10 16 0.00 0.00
8:55 am 08:55 Partly Cloudy 83 28.1 42 5.6 24 24 Calm 29.57 1001 10 16 0.00 0.00
9:55 am 09:55 Partly Cloudy 85 29.6 37 2.7 18 18 N 14 22 29.54 1000 10 16 0.00 0.00
10:55 am 10:55 Mostly Cloudy 89 31.8 37 2.9 16 16 NNE 3 6 29.54 1000 10 16 0.00 0.00
11:55 am 11:55 Cloudy 86 30 40 4.6 20 20 SE 6 9 29.55 1001 10 16 0.00 0.00
12:55 pm 12:55 Mostly Cloudy 87 30.7 38 3.6 18 18 N 5 7 29.54 1000 10 16 0.00 0.00
1:55 pm 13:55 Sunny 91 32.5 41 5.1 18 18 E 3 6 29.51 999 10 16 0.00 0.00
2:21 pm 14:21 Mostly Cloudy 88 31 39 4 18 18 NNW 15 24 29.52 1000 10 16 0.00 0.00
2:44 pm 14:44 Mostly Cloudy with Light Rain 81 27 41 5 24 24 NNW 18 30 29.55 1001 10 16 0.00 0.00
2:55 pm 14:55 Mostly Cloudy with Light Rain 82 27.6 41 5.2 24 24 NW 22 35 29.55 1001 10 16 0.01 0.13
2:56 pm 14:56 Mostly Cloudy 82 28 41 5 23 23 NW 20 31 29.54 1000 10 16 0.00 0.00
3:55 pm 15:55 Mostly Cloudy 82 27.7 40 4.7 23 23 N 12 19 29.53 1000 10 16 0.01 0.13
4:55 pm 16:55 Sunny 85 29.7 40 4.3 20 20 NNW 3 6 29.50 999 10 16 0.00 0.00
5:55 pm 17:55 Mostly Cloudy with Light Rain 83 28.1 47 8.4 29 29 WNW 14 22 29.50 999 10 16 0.01 0.13
6:33 pm 18:33 Windy with Storms Likely 68 20 52 11 56 56 WNW 25 41 29.60 1002 8 13 0.00 0.00
7:01 pm 19:01 Cloudy 70 21 52 11 53 53 WNW 12 19 29.58 1002 10 16 0.00 0.00
7:55 pm 19:55 Partly Cloudy with Thunderstorms 74 23.4 44 6.6 34 34 NW 16 26 29.56 1001 10 16 0.01 0.13
8:06 pm 20:06 Mostly Cloudy 75 24 43 6 31 31 NNW 30 48 29.54 1000 10 16 0.00 0.00
8:11 pm 20:11 Mostly Cloudy 75 24 43 6 31 31 WNW 20 31 29.56 1001 10 16 0.00 0.00
8:27 pm 20:27 Cloudy with Light Rain 72 22 45 7 38 38 W 20 31 29.58 1002 10 16 0.00 0.00
8:32 pm 20:32 Cloudy with Light Rain 72 22 46 8 41 41 SW 21 33 29.57 1001 10 16 0.00 0.00
8:48 pm 20:48 Cloudy 75 24 45 7 34 34 W 7 11 29.56 1001 10 16 0.00 0.00
8:55 pm 20:55 Cloudy 74 23.1 45 7.2 36 36 NW 13 20 29.56 1001 10 16 0.01 0.13
9:55 pm 21:55 Mostly Cloudy 75 23.7 43 6 32 32 WNW 9 15 29.57 1002 10 16 0.00 0.00
10:55 pm 22:55 Mostly Clear 74 23.2 43 6 33 33 SW 8 13 29.60 1002 10 16 0.00 0.00
11:55 pm 23:55 Partly Cloudy 75 24.1 42 5.4 30 30 W 6 9 29.57 1002 10 16 0.00 0.00

Powered by Vaisala Xweather